Terug naar catalogus

CZ-6A R/B

ActiefPO
NORAD 69400·ROCKET BODY·🇨🇳 China

Gelanceerd Jun 4, 2026 vanaf Taiyuan Satellite Launch Center

Loading…

Volgende Passages (komende 24 uur)

TLE

VersSource: Space-Track

Epoch: Sep 14, 2026, 13:37 UTC

1 69400U 26124U   26257.56765287  .00000272  00000-0  52034-4 0  9991
2 69400  89.0335 351.4974 0100043 112.4318 248.7527 14.57341473 14874

Volg CZ-6A R/B in realtime met AllMySat

Download on the App Store